Flag for China Weather past 2 weeks in Chengdu, Sichuan, China

Now
55 °F

Scattered clouds.


Feels Like: 53 °F
Forecast: 41 / 58 °F
Wind: 8 mph from Southeast

Location: Chengdu Airport

Current Time: Mar 1, 2015 at 8:11:52 PM

Latest Report: Mar 1, 2015 at 7:00 PM


Visibility: N/A

Pressure: 30.12 "Hg

Humidity: 38%

Dew point: 30 °F

Location of ChengduLocation

Historic Weather in Chengdu — Graph

°F

Chengdu temperature yesterday

Maximum temperature yesterday: 52 °F (at 11:00 AM)
Minimum temperature yesterday: 48 °F (at 6:00 PM)
Average temperature yesterday: 50 °F

Past Weeks' High & Low Weather Summary

 TemperatureHumidityPressure
High70 °F (Feb 16, 3:00 PM)94% (Feb 27, 2:00 PM)30.45 "Hg (Feb 27, 2:00 PM)
Low41 °F (Feb 24, 7:00 AM)23% (Feb 16, 3:00 PM)29.71 "Hg (Feb 24, 3:00 PM)
Average55 °F64%29.99 "Hg
* Reported Feb 14 7:00 PM — Mar 1 7:00 PM, Chengdu, Weather by CustomWeather, © 2015

Note: Actual official high and low records may vary slightly from our data, if they occured in-between our weather recording intervals... More about our weather records

Advertising

Chengdu weather history for previous 24 hours

 ConditionsComfort  
Time TempWeatherWind HumidityBarometerVisibility
7:00 PM
Sun, Mar 1
55 °FScattered clouds.8 mph38%30.12 "HgN/A
6:00 PM55 °FPassing clouds.3 mph36%30.12 "HgN/A
5:00 PM59 °FScattered clouds.1 mph27%30.12 "HgN/A
4:00 PM59 °FPassing clouds.6 mph31%30.12 "HgN/A
3:00 PM57 °FScattered clouds.6 mph33%30.18 "HgN/A
2:00 PM57 °FScattered clouds.8 mph33%30.21 "HgN/A
1:00 PM55 °FScattered clouds.3 mph36%30.24 "HgN/A
12:00 PM54 °FPassing clouds.3 mph38%30.27 "HgN/A
11:00 AM52 °FPassing clouds.3 mph44%30.30 "HgN/A
10:00 AM48 °FPassing clouds.3 mph66%30.33 "HgN/A
9:00 AM46 °FSunny.1 mph76%30.30 "Hg10 mi
8:00 AM43 °FSunny.1 mph81%30.30 "Hg10 mi
7:00 AM43 °FClear.1 mph81%30.27 "Hg10 mi
6:00 AM43 °FClear.1 mph81%30.30 "Hg10 mi
5:00 AM41 °FClear.1 mph87%30.33 "Hg10 mi
4:00 AM43 °FClear.No wind81%30.33 "Hg10 mi
3:00 AM45 °FClear.1 mph76%30.36 "Hg10 mi
2:00 AM46 °FPassing clouds.1 mph66%30.39 "HgN/A
1:00 AM46 °FPassing clouds.1 mph71%30.42 "HgN/A
12:00 AM45 °FPassing clouds.1 mph76%30.45 "HgN/A
11:00 PM
Sat, Feb 28
48 °FPassing clouds.No wind58%30.45 "HgN/A
10:00 PM48 °FPassing clouds.1 mph54%30.45 "HgN/A
9:00 PM48 °FPassing clouds.3 mph58%30.42 "HgN/A
8:00 PM48 °FPassing clouds.3 mph58%30.39 "HgN/A
Weather by CustomWeather, © 2015

See weather overviewHow to use our weather pages